EW2349 Weather Reports


time (UTC)temp
F
wind
direction
speed
knots
gust
knots
rain 1hr
in
rain 24hr
in
rain mn
in
humidity
%
barometer
mb
20260504044531 55 360 10.4 17.4 0.00 0.00 0.00 39 1003.7
20260504043031 56 360 5.2 8.7 0.00 0.00 0.00 38 1003.4
20260504041540 57 360 7.8 12.2 0.00 0.00 0.00 37 1002.9
20260504040029 57 360 8.7 13.9 0.00 0.00 0.00 36 1002.7
20260504034529 58 346 8.7 17.4 0.00 0.00 0.00 37 1002.7
20260504033028 58 15 14.8 21.7 0.00 0.00 0.00 36 1002.4
20260504031527 59 360 13.0 20.9 0.00 0.00 0.00 36 1002.2
20260504030027 59 360 6.1 13.0 0.00 0.00 0.00 37 1001.9
20260504024526 61 347 8.7 18.2 0.00 0.00 0.00 35 1001.5
20260504023025 61 360 11.3 20.9 0.00 0.00 0.00 35 1001.1
20260504021523 63 360 18.2 25.2 0.00 0.00 0.00 34 1000.7
20260504020035 65 14 16.5 30.4 0.00 0.00 0.00 33 1000.3
20260504014523 68 360 13.9 21.7 0.00 0.00 0.00 29 999.5
20260504013031 69 360 11.3 21.7 0.00 0.00 0.00 29 999.4
20260504011522 70 360 14.8 21.7 0.00 0.00 0.00 29 999.4
20260504010020 71 360 13.9 24.3 0.00 0.00 0.00 29 999.3
20260504004519 71 360 12.2 22.6 0.00 0.00 0.00 29 999.5
20260504003018 72 360 16.5 25.2 0.00 0.00 0.00 29 999.6
20260504001524 72 360 15.6 26.9 0.00 0.00 0.00 29 999.7
20260504000016 73 360 13.9 24.3 0.00 0.00 0.00 28 999.6
20260503234516 74 360 15.6 28.7 0.00 0.00 0.00 26 999.6
20260503233019 75 360 19.1 26.9 0.00 0.00 0.00 20 999.6
20260503231514 75 360 13.9 24.3 0.00 0.00 0.00 21 999.7
20260503230031 76 360 13.0 26.1 0.00 0.00 0.00 20 999.6
20260503224620 76 360 16.5 28.7 0.00 0.00 0.00 23 999.7
20260503223011 77 360 18.2 26.9 0.00 0.00 0.00 21 999.9
20260503221508 77 360 16.5 27.8 0.00 0.00 0.00 19 1000.2
20260503220006 77 230 15.6 25.2 0.00 0.00 0.00 20 1000.5
20260503214508 77 360 15.6 23.5 0.00 0.00 0.00 21 1000.5
20260503213103 76 231 14.8 26.9 0.00 0.00 0.00 27 1001.2
20260503211559 75 360 12.2 23.5 0.00 0.00 0.00 28 1001.7
20260503210053 75 227 14.8 0.0 0.00 0.00 0.00 27 1002.3
20260503204611 75 360 12.2 17.4 0.00 0.00 0.00 25 1002.8
20260503203047 75 360 10.4 21.7 0.00 0.00 0.00 23 1003.3
20260503201545 74 360 13.9 20.0 0.00 0.00 0.00 22 1003.4
20260503200041 72 360 13.0 17.4 0.00 0.00 0.00 26 1003.7
20260503194542 71 360 12.2 19.1 0.00 0.00 0.00 26 1004.0
20260503193044 71 360 13.9 19.1 0.00 0.00 0.00 26 1004.5
20260503191600 72 232 9.6 22.6 0.00 0.00 0.00 28 1004.8
20260503190034 72 227 13.0 19.1 0.00 0.00 0.00 28 1005.1
20260503184527 73 360 10.4 20.9 0.00 0.00 0.00 29 1005.6
20260503183024 71 360 13.0 20.9 0.00 0.00 0.00 29 1006.1
20260503181521 71 360 11.3 21.7 0.00 0.00 0.00 31 1006.3
20260503180024 71 360 12.2 17.4 0.00 0.00 0.00 29 1006.7
20260503174515 71 360 9.6 19.1 0.00 0.00 0.00 30 1007.0
20260503173011 70 360 12.2 20.9 0.00 0.00 0.00 30 1007.4
20260503171508 69 360 12.2 20.9 0.00 0.00 0.00 30 1007.7
20260503081513 34 360 0.0 0.0 0.00 0.00 0.00 82 1012.7